Location: 22
(39.7117°N, 89.5929°W)
Time: 07:33:54
(UTC-05:00)

A-11 Canister half - Pass Details

Date: 03 February 2023
Orbit: 1526 x 1682 km, 47.3° (Epoch: 01 April)

Event Time Altitude Azimuth Distance (km) Brightness Sun altitude
Exits shadow 02:47:10 11° 139° (SE) 3,578 11.0 -49.2°
Maximum altitude 02:49:40 13° 122° (ESE) 3,467 11.1 -48.8°
Drops below altitude 10° 02:53:15 10° 99° (E) 3,690 11.4 -48.1°
Sets 02:58:40 0° 74° (ENE) 4,684 12.3 -47.2°
